OK9CPU-9 Weather Reports


time (UTC)temp
C
wind
direction
speed
KPH
gust
KPH
rain 1hr
cm
rain 24hr
cm
rain mn
cm
humidity
%
barometer
mb
20260507232308 13 0.0 0.0 0.00 0.00 0.00 31 1015.3
20260507230626 13 0.0 0.0 0.00 0.00 0.00 32 1015.0
20260507224958 13 0.0 0.0 0.00 0.00 0.00 32 1015.0
20260507223316 13 0.0 0.0 0.00 0.00 0.00 32 1014.9
20260507221641 13 0.0 0.0 0.00 0.00 0.00 32 1014.9
20260507220013 13 0.0 0.0 0.00 0.00 0.00 32 1014.8
20260507214331 13 0.0 0.0 0.00 0.00 0.00 32 1014.7
20260507212656 13 0.0 0.0 0.00 0.00 0.00 32 1014.5
20260507211021 13 0.0 0.0 0.00 0.00 0.00 32 1014.4
20260507205346 13 0.0 0.0 0.00 0.00 0.00 33 1014.2
20260507203711 13 0.0 0.0 0.00 0.00 0.00 33 1014.2
20260507202043 14 0.0 0.0 0.00 0.00 0.00 33 1014.1
20260507200400 14 0.0 0.0 0.00 0.00 0.00 33 1014.0
20260507194733 15 0.0 0.0 0.00 0.00 0.00 33 1013.9
20260507193050 15 0.0 0.0 0.00 0.00 0.00 33 1013.7
20260507191423 15 0.0 0.0 0.00 0.00 0.00 33 1013.5
20260507185748 15 0.0 0.0 0.00 0.00 0.00 33 1013.5
20260507184105 16 0.0 0.0 0.00 0.00 0.00 33 1013.3
20260507182430 16 0.0 0.0 0.00 0.00 0.00 33 1013.1
20260507180803 17 0.0 0.0 0.00 0.00 0.00 33 1013.1
20260507175120 17 0.0 0.0 0.00 0.00 0.00 33 1012.8
20260507173453 18 0.0 0.0 0.00 0.00 0.00 33 1012.8
20260507171817 18 0.0 0.0 0.00 0.00 0.00 33 1012.3
20260507170143 19 0.0 0.0 0.00 0.00 0.00 33 1012.1
20260507164500 20 0.0 0.0 0.00 0.00 0.00 33 1012.0
20260507162832 20 0.0 0.0 0.00 0.00 0.00 33 1011.6
20260507161158 21 0.0 0.0 0.00 0.00 0.00 33 1011.5
20260507155515 23 0.0 0.0 0.00 0.00 0.00 32 1011.4
20260507152212 25 0.0 0.0 0.00 0.00 0.00 30 1011.4
20260507150537 27 0.0 0.0 0.00 0.00 0.00 28 1011.3
20260507144902 29 0.0 0.0 0.00 0.00 0.00 25 1011.2
20260507143220 31 0.0 0.0 0.00 0.00 0.00 23 1011.3
20260507141552 31 0.0 0.0 0.00 0.00 0.00 23 1011.3
20260507135910 30 0.0 0.0 0.00 0.00 0.00 24 1011.3
20260507134242 32 0.0 0.0 0.00 0.00 0.00 22 1011.4
20260507132607 33 0.0 0.0 0.00 0.00 0.00 21 1011.4
20260507130925 33 0.0 0.0 0.00 0.00 0.00 21 1011.6
20260507125257 32 0.0 0.0 0.00 0.00 0.00 21 1011.6
20260507123622 32 0.0 0.0 0.00 0.00 0.00 21 1011.8
20260507120312 31 0.0 0.0 0.00 0.00 0.00 22 1012.0
20260507114637 30 0.0 0.0 0.00 0.00 0.00 22 1012.3
20260507113002 30 0.0 0.0 0.00 0.00 0.00 22 1012.4
20260507105652 29 0.0 0.0 0.00 0.00 0.00 23 1012.4
20260507104017 29 0.0 0.0 0.00 0.00 0.00 22 1012.4
20260507102342 28 0.0 0.0 0.00 0.00 0.00 23 1012.5
20260507095032 31 0.0 0.0 0.00 0.00 0.00 20 1012.3
20260507093356 28 0.0 0.0 0.00 0.00 0.00 22 1012.3
20260507091722 27 0.0 0.0 0.00 0.00 0.00 22 1012.2
20260507090047 27 0.0 0.0 0.00 0.00 0.00 23 1012.0
20260507084411 27 0.0 0.0 0.00 0.00 0.00 22 1011.8
20260507082736 27 0.0 0.0 0.00 0.00 0.00 21 1011.6
20260507081101 26 0.0 0.0 0.00 0.00 0.00 22 1011.6
20260507075426 25 0.0 0.0 0.00 0.00 0.00 22 1011.5
20260507070441 23 0.0 0.0 0.00 0.00 0.00 23 1011.3
20260507063131 22 0.0 0.0 0.00 0.00 0.00 22 1011.2
20260507061456 21 0.0 0.0 0.00 0.00 0.00 23 1011.0
20260507055821 18 0.0 0.0 0.00 0.00 0.00 24 1010.8
20260507052511 16 0.0 0.0 0.00 0.00 0.00 27 1010.5
20260507050829 15 0.0 0.0 0.00 0.00 0.00 28 1010.2
20260507045201 13 0.0 0.0 0.00 0.00 0.00 30 1010.1
20260507043526 13 0.0 0.0 0.00 0.00 0.00 30 1009.6
20260507041843 13 0.0 0.0 0.00 0.00 0.00 30 1009.8
20260507040216 12 0.0 0.0 0.00 0.00 0.00 31 1009.6
20260507034623 12 0.0 0.0 0.00 0.00 0.00 31 1009.2
20260507032943 12 0.0 0.0 0.00 0.00 0.00 31 1009.2
20260507032906 12 0.0 0.0 0.00 0.00 0.00 31 1009.2
20260507031231 12 0.0 0.0 0.00 0.00 0.00 32 1008.9
20260507025556 12 0.0 0.0 0.00 0.00 0.00 32 1008.6
20260507023921 12 0.0 0.0 0.00 0.00 0.00 32 1008.7
20260507020603 13 0.0 0.0 0.00 0.00 0.00 32 1008.5
20260507014936 13 0.0 0.0 0.00 0.00 0.00 32 1008.4
20260507013253 13 0.0 0.0 0.00 0.00 0.00 32 1008.2
20260507011627 13 0.0 0.0 0.00 0.00 0.00 32 1007.9
20260507005950 13 0.0 0.0 0.00 0.00 0.00 32 1007.5
20260507004316 14 0.0 0.0 0.00 0.00 0.00 32 1007.1
20260507002641 14 0.0 0.0 0.00 0.00 0.00 32 1006.9
20260507000958 15 0.0 0.0 0.00 0.00 0.00 32 1007.1
20260506235330 15 0.0 0.0 0.00 0.00 0.00 32 1006.9
20260506233655 15 0.0 0.0 0.00 0.00 0.00 32 1006.6